Flag for Germany Weather past 2 weeks in Wuppertal, North Rhine-Westphalia, Germany

Now
59 °F

Passing clouds.


Feels Like: 56 °F
Forecast: 48 / 68 °F
Wind: 16 mph from Northeast

Location: Duesseldorf


UV Index: 3 (Moderate)

Visibility: N/A


Pressure: 30.01 "Hg

Humidity: 51%

Dew point: 41 °F

Location of WuppertalLocation

Historic Weather in Wuppertal

°F

Wuppertal temperature yesterday

Maximum temperature yesterday: 55 °F (at 4:20 PM)
Minimum temperature yesterday: 43 °F (at 6:50 AM)
Average temperature yesterday: 49 °F

Past Weeks' High & Low Weather Summary

 TemperatureHumidityPressure
High72 °F (Apr 7, 4:20 PM)94% (Apr 5, 5:20 AM)30.45 "Hg (Apr 5, 5:20 AM)
Low30 °F (Apr 16, 4:50 AM)24% (Apr 17, 4:50 PM)29.74 "Hg (Apr 7, 10:20 PM)
Average52 °F67%30.09 "Hg
* Reported Apr 4 1:20 PM — Apr 19 1:50 PM, Wuppertal, Weather by CustomWeather, © 2014

Note: Actual official high and low records may vary slightly from our data, if they occured in-between our weather recording intervals... More about our weather records

Advertising

Historic Weather Conditions — Data for Previous 24 hours

 ConditionsComfort  
Time TempWeatherWind HumidityBarometerVisibility
1:50 PM
Apr 19
59 °FPassing clouds.14 mph48%30.01 "HgN/A
1:20 PM57 °FPassing clouds.15 mph48%30.04 "HgN/A
12:50 PM57 °FPassing clouds.12 mph48%30.04 "HgN/A
12:20 PM55 °FPassing clouds.12 mph51%30.04 "HgN/A
11:50 AM54 °FPassing clouds.14 mph58%30.04 "HgN/A
11:20 AM54 °FPassing clouds.14 mph54%30.07 "HgN/A
10:50 AM52 °FPassing clouds.13 mph58%30.07 "HgN/A
10:20 AM50 °FPassing clouds.14 mph62%30.07 "HgN/A
9:50 AM50 °FPassing clouds.15 mph62%30.07 "HgN/A
9:20 AM48 °FPassing clouds.10 mph71%30.07 "HgN/A
8:50 AM46 °FPassing clouds.9 mph76%30.07 "HgN/A
8:20 AM45 °FSunny.7 mph81%30.04 "Hg10 mi
7:50 AM43 °FSunny.5 mph87%30.04 "Hg10 mi
7:20 AM39 °FClear.5 mph93%30.04 "Hg10 mi
6:50 AM39 °FFog.3 mph93%30.01 "HgN/A
6:20 AM41 °FClear.3 mph87%30.01 "Hg10 mi
5:50 AM41 °FPassing clouds.5 mph93%30.01 "HgN/A
5:20 AM41 °FPassing clouds.2 mph93%30.01 "HgN/A
4:50 AM41 °FPassing clouds.2 mph87%30.01 "HgN/A
4:20 AM41 °FPassing clouds.5 mph87%29.98 "HgN/A
3:50 AM43 °FPartly cloudy.2 mph81%29.98 "HgN/A
3:20 AM43 °FPassing clouds.6 mph87%29.98 "HgN/A
2:50 AM43 °FPassing clouds.3 mph87%29.98 "HgN/A
2:20 AM43 °FPassing clouds.6 mph87%29.98 "HgN/A
1:50 AM43 °FPassing clouds.6 mph87%30.01 "HgN/A
1:20 AM41 °FPassing clouds.6 mph87%30.01 "HgN/A
12:50 AM43 °FPassing clouds.8 mph81%30.01 "HgN/A
12:20 AM43 °FClear.9 mph76%30.01 "Hg10 mi
11:50 PM
Apr 18
43 °FClear.8 mph81%30.01 "Hg10 mi
11:20 PM43 °FClear.6 mph76%30.01 "Hg10 mi
10:50 PM45 °FClear.6 mph76%29.98 "Hg10 mi
10:20 PM45 °FPassing clouds.7 mph71%30.01 "HgN/A
9:50 PM46 °FPassing clouds.9 mph66%29.98 "HgN/A
9:20 PM46 °FPassing clouds.10 mph66%29.98 "HgN/A
8:50 PM48 °FPassing clouds.14 mph58%29.98 "HgN/A
8:20 PM50 °FPassing clouds.15 mph58%29.98 "HgN/A
7:50 PM52 °FScattered showers. Scattered clouds.12 mph54%29.95 "HgN/A
7:20 PM52 °FPassing clouds.12 mph54%29.95 "HgN/A
6:50 PM52 °FPassing clouds.17 mph54%29.95 "HgN/A
6:20 PM54 °FScattered clouds.14 mph47%29.95 "HgN/A
5:50 PM54 °FSprinkles. Scattered clouds.10 mph54%29.95 "HgN/A
5:20 PM55 °FScattered clouds.14 mph47%29.95 "HgN/A
4:50 PM54 °FScattered clouds.13 mph47%29.95 "HgN/A
4:20 PM55 °FScattered clouds.14 mph47%29.95 "HgN/A
3:20 PM54 °FScattered clouds.15 mph44%29.98 "HgN/A
2:50 PM54 °FScattered clouds.13 mph47%29.98 "HgN/A
2:20 PM54 °FScattered clouds.16 mph41%29.95 "HgN/A
Weather by CustomWeather, © 2014

See weather overview